Hourly Data Report for August 23, 2004

SHERBROOKE A
QUEBEC

45°26'00.000" N
71°41'00.000" W
241.40 m
7028124
71610
YSC

Download Data

Hourly Data (August 2004)
Hourly Data Report for August 23, 2004
TIME
LST
Temp Definition
°C
Dew Point Definition
°C
Rel Hum Definition
%
Precip. Amount Definition
mm

Wind Dir Definition
10's deg

Wind Spd Definition
km/h
Visibility Definition
km
Stn Press Definition
kPa
Hmdx Definition


Wind Chill Definition


Weather Definition


00:00 8.5 7.5 93   13 6 15.0 98.53      
01:00 8.3 7.6 95     0 15.0 98.51      
02:00 7.9 7.4 97     0 15.0 98.44      
03:00 7.9 7.3 96   13 6 15.0 98.38      
04:00 7.3 6.8 97     0 8.0 98.37      
05:00 8.1 7.5 96     0 12.9 98.35      
06:00 10.0 9.4 96   8 4 15.0 98.35      
07:00 14.7 11.9 83     0 24.1 98.33     Mostly Cloudy
08:00 17.4 12.8 74   21 11 24.1 98.28     Mostly Cloudy
09:00 19.8 13.4 67   21 9 24.1 98.22     Mostly Cloudy
10:00 20.2 13.1 64   25 13 24.1 98.22     Cloudy
11:00 19.1 13.4 70   24 13 24.1 98.22     Cloudy
12:00 18.8 13.8 73   24 13 24.1 98.26     Cloudy
13:00 18.9 14.3 75   25 11 24.1 98.31     Cloudy
14:00 18.1 15.2 83   26 11 19.3 98.32     Rain Showers
15:00 18.5 15.3 82   22 4 19.3 98.31     Cloudy
16:00 17.7 15.4 86   21 9 19.3 98.35     Rain Showers
17:00 18.3 15.7 85   31 15 15.0 98.43      
18:00 16.9 9.9 63   31 11 15.0 98.59      
19:00 14.4 9.1 70   32 7 15.0 98.74      
20:00 11.5 8.6 82   30 9 15.0 98.87      
21:00 11.3 8.2 81   31 6 15.0 98.97      
22:00 10.4 7.9 84     0 15.0 99.06      
23:00 8.7 7.4 92   30 6 15.0 99.11      

Notes on Data Quality.

Legend

  • E = Estimated
  • M = Missing
  • NA = Not Available*
  • [empty] = Indicates an unobserved value
Date modified: